This is the latest recevied weather packets stored in our database for station/object DG8SF-13. If no packets are shown the sender has not sent any weather packets the latest 10 day(s).
| Time | Temp. | Humidity | Pressure | Rain* | Wind** | Luminosity | Snow |
|---|---|---|---|---|---|---|---|
| 1778153500 | 13.33° C | 72% | 1013.8 hPa | 0 mm | - | - | - |
| 1778153190 | 13.33° C | 71% | 1013.9 hPa | 0 mm | - | - | - |
| 1778152877 | 13.33° C | 67% | 1013.9 hPa | 0 mm | - | - | - |
| 1778152565 | 13.33° C | 69% | 1013.9 hPa | 0 mm | - | - | - |
| 1778152253 | 13.89° C | 68% | 1013.8 hPa | 0 mm | - | - | - |
| 1778151941 | 14.44° C | 70% | 1013.8 hPa | 0 mm | - | - | - |
| 1778151629 | 13.89° C | 68% | 1013.8 hPa | 0 mm | - | - | - |
| 1778151317 | 13.89° C | 72% | 1013.8 hPa | 0 mm | - | - | - |
| 1778151004 | 13.33° C | 73% | 1013.9 hPa | 0 mm | - | - | - |
| 1778150694 | 13.33° C | 71% | 1014 hPa | 0 mm | - | - | - |
| 1778150380 | 13.33° C | 71% | 1013.9 hPa | 0 mm | - | - | - |
| 1778150071 | 14.44° C | 68% | 1013.9 hPa | 0 mm | - | - | - |
| 1778149756 | 13.89° C | 69% | 1013.9 hPa | 0 mm | - | - | - |
| 1778149446 | 13.89° C | 73% | 1013.9 hPa | 0 mm | - | - | - |
| 1778149132 | 13.33° C | 71% | 1014 hPa | 0 mm | - | - | - |
| 1778148822 | 13.89° C | 73% | 1014 hPa | 0 mm | - | - | - |
| 1778148509 | 12.78° C | 75% | 1013.9 hPa | 0 mm | - | - | - |
| 1778148198 | 12.78° C | 76% | 1014 hPa | 0 mm | - | - | - |
| 1778147884 | 12.22° C | 77% | 1014 hPa | 0 mm | - | - | - |
| 1778147574 | 12.22° C | 76% | 1014.1 hPa | 0 mm | - | - | - |
| 1778147261 | 12.22° C | 79% | 1014 hPa | 0 mm | - | - | - |
| 1778146948 | 11.67° C | 77% | 1014 hPa | 0 mm | - | - | - |
| 1778146635 | 11.67° C | 78% | 1014 hPa | 0 mm | - | - | - |
| 1778146325 | 11.67° C | 80% | 1013.9 hPa | 0 mm | - | - | - |
| 1778146012 | 11.67° C | 81% | 1013.9 hPa | 0 mm | - | - | - |
* Rain latest hour (hover to see other rain measurements)
** Current wind speed in m/s (hover to see current wind gust speed)